| time (UTC) | temp F | wind direction | speed MPH | gust MPH | rain 1hr in | rain 24hr in | rain mn in | humidity % | barometer mb |
| 20260507083102 | 44 | 68 | 4.0 | 4.0 | 0.00 | 0.00 | 0.00 | 70 | 1011.5 |
| 20260507081002 | 44 | 90 | 2.0 | 3.0 | 0.00 | 0.00 | 0.00 | 65 | 1011.9 |
| 20260507075802 | 44 | 45 | 2.0 | 2.0 | 0.00 | 0.00 | 0.00 | 65 | 1012.2 |
| 20260507074702 | 44 | 113 | 1.0 | 3.0 | 0.00 | 0.00 | 0.00 | 63 | 1012.2 |
| 20260507073602 | 45 | 45 | 2.0 | 2.0 | 0.00 | 0.00 | 0.00 | 61 | 1012.2 |
| 20260507072502 | 45 | 90 | 1.0 | 2.0 | 0.00 | 0.00 | 0.00 | 61 | 1012.2 |
| 20260507071402 | 45 | 90 | 2.0 | 2.0 | 0.00 | 0.00 | 0.00 | 60 | 1012.5 |
| 20260507070302 | 45 | 45 | 2.0 | 2.0 | 0.00 | 0.00 | 0.00 | 56 | 1012.5 |
| 20260507064002 | 45 | 23 | 2.0 | 2.0 | 0.00 | 0.00 | 0.00 | 54 | 1012.9 |
| 20260507062902 | 45 | 45 | 2.0 | 2.0 | 0.00 | 0.00 | 0.00 | 53 | 1012.9 |
| 20260507061802 | 45 | 68 | 3.0 | 3.0 | 0.00 | 0.00 | 0.00 | 51 | 1012.9 |
| 20260507060602 | 45 | 158 | 1.0 | 2.0 | 0.00 | 0.00 | 0.00 | 51 | 1013.2 |
| 20260507055502 | 45 | 135 | 1.0 | 2.0 | 0.00 | 0.00 | 0.00 | 51 | 1013.2 |
| 20260507054402 | 46 | 90 | 2.0 | 2.0 | 0.00 | 0.00 | 0.00 | 50 | 1013.2 |
| 20260507053303 | 46 | 23 | 0.0 | 1.0 | 0.00 | 0.00 | 0.00 | 49 | 1013.2 |
| 20260507051102 | 47 | 113 | 3.0 | 3.0 | 0.00 | 0.00 | 0.00 | 46 | 1013.2 |
| 20260507044702 | 46 | 180 | 0.0 | 0.0 | 0.00 | 0.00 | 0.00 | 48 | 1013.2 |
| 20260507043302 | 46 | 158 | 0.0 | 0.0 | 0.00 | 0.00 | 0.00 | 49 | 1013.2 |
| 20260507041102 | 46 | 158 | 0.0 | 0.0 | 0.00 | 0.00 | 0.00 | 45 | 1013.5 |
| 20260507035002 | 46 | 158 | 0.0 | 0.0 | 0.00 | 0.00 | 0.00 | 46 | 1013.9 |
| 20260507031602 | 48 | 158 | 0.0 | 0.0 | 0.00 | 0.00 | 0.00 | 41 | 1013.9 |
| 20260507030503 | 50 | 158 | 0.0 | 0.0 | 0.00 | 0.00 | 0.00 | 37 | 1013.9 |
| 20260507024702 | 49 | 158 | 0.0 | 0.0 | 0.00 | 0.00 | 0.00 | 39 | 1013.9 |
| 20260507023603 | 50 | 158 | 0.0 | 1.0 | 0.00 | 0.00 | 0.00 | 39 | 1013.9 |
| 20260507022502 | 51 | 45 | 2.0 | 2.0 | 0.00 | 0.00 | 0.00 | 39 | 1013.9 |
| 20260507021402 | 49 | 180 | 0.0 | 0.0 | 0.00 | 0.00 | 0.00 | 40 | 1013.5 |
| 20260507020202 | 50 | 180 | 0.0 | 0.0 | 0.00 | 0.00 | 0.00 | 39 | 1013.5 |
| 20260507015102 | 51 | 180 | 0.0 | 0.0 | 0.00 | 0.00 | 0.00 | 37 | 1013.5 |
| 20260507014002 | 53 | 180 | 0.0 | 0.0 | 0.00 | 0.00 | 0.00 | 34 | 1013.2 |
| 20260507012802 | 54 | 180 | 0.0 | 0.0 | 0.00 | 0.00 | 0.00 | 34 | 1013.5 |
| 20260507005502 | 57 | 180 | 0.0 | 0.0 | 0.00 | 0.00 | 0.00 | 30 | 1013.2 |
| 20260507003302 | 58 | 158 | 1.0 | 2.0 | 0.00 | 0.00 | 0.00 | 29 | 1013.5 |
| 20260507001002 | 59 | 113 | 4.0 | 5.0 | 0.00 | 0.00 | 0.00 | 27 | 1013.9 |
| 20260506235902 | 61 | 225 | 1.0 | 4.0 | 0.00 | 0.00 | 0.00 | 30 | 1013.9 |
| 20260506234802 | 62 | 203 | 4.0 | 4.0 | 0.00 | 0.00 | 0.00 | 29 | 1013.9 |
| 20260506233702 | 63 | 315 | 2.0 | 3.0 | 0.00 | 0.00 | 0.00 | 29 | 1013.9 |
| 20260506232602 | 60 | 270 | 2.0 | 4.0 | 0.00 | 0.00 | 0.00 | 30 | 1013.9 |
| 20260506231502 | 60 | 45 | 4.0 | 5.0 | 0.00 | 0.00 | 0.00 | 29 | 1013.9 |
| 20260506230303 | 62 | 180 | 3.0 | 7.0 | 0.00 | 0.00 | 0.00 | 27 | 1014.2 |
| 20260506225202 | 62 | 23 | 6.0 | 6.0 | 0.00 | 0.00 | 0.00 | 27 | 1014.2 |
| 20260506224102 | 62 | 45 | 5.0 | 6.0 | 0.00 | 0.00 | 0.00 | 29 | 1014.2 |
| 20260506223003 | 63 | 90 | 4.0 | 4.0 | 0.00 | 0.00 | 0.00 | 27 | 1014.2 |
| 20260506221902 | 62 | 180 | 4.0 | 5.0 | 0.00 | 0.00 | 0.00 | 29 | 1014.6 |
| 20260506220802 | 62 | 315 | 3.0 | 7.0 | 0.00 | 0.00 | 0.00 | 30 | 1014.6 |
| 20260506215702 | 62 | 180 | 3.0 | 6.0 | 0.00 | 0.00 | 0.00 | 27 | 1014.6 |
| 20260506214503 | 64 | 180 | 4.0 | 5.0 | 0.00 | 0.00 | 0.00 | 29 | 1014.9 |
| 20260506205003 | 61 | 338 | 4.0 | 6.0 | 0.00 | 0.00 | 0.00 | 29 | 1015.6 |
| 20260506203802 | 63 | 270 | 5.0 | 5.0 | 0.00 | 0.00 | 0.00 | 30 | 1015.6 |
| 20260506202702 | 62 | 225 | 6.0 | 7.0 | 0.00 | 0.00 | 0.00 | 31 | 1015.6 |
| 20260506201602 | 62 | 158 | 2.0 | 3.0 | 0.00 | 0.00 | 0.00 | 34 | 1015.6 |
| 20260506200502 | 60 | 45 | 7.0 | 7.0 | 0.00 | 0.00 | 0.00 | 32 | 1015.6 |
| 20260506195402 | 59 | 23 | 4.0 | 9.0 | 0.00 | 0.00 | 0.00 | 32 | 1015.9 |
| 20260506194302 | 59 | 180 | 2.0 | 7.0 | 0.00 | 0.00 | 0.00 | 32 | 1015.9 |
| 20260506193202 | 58 | 90 | 3.0 | 6.0 | 0.00 | 0.00 | 0.00 | 31 | 1015.9 |
| 20260506192102 | 59 | 248 | 4.0 | 8.0 | 0.00 | 0.00 | 0.00 | 35 | 1015.9 |
| 20260506190902 | 57 | 180 | 3.0 | 4.0 | 0.00 | 0.00 | 0.00 | 35 | 1016.3 |
| 20260506185802 | 57 | 0 | 5.0 | 7.0 | 0.00 | 0.00 | 0.00 | 34 | 1016.3 |
| 20260506184703 | 59 | 23 | 6.0 | 7.0 | 0.00 | 0.00 | 0.00 | 35 | 1016.3 |
| 20260506183602 | 57 | 158 | 6.0 | 6.0 | 0.00 | 0.00 | 0.00 | 34 | 1016.6 |
| 20260506182402 | 59 | 180 | 3.0 | 6.0 | 0.00 | 0.00 | 0.00 | 35 | 1016.6 |
| 20260506181302 | 55 | 68 | 4.0 | 6.0 | 0.00 | 0.00 | 0.00 | 35 | 1016.6 |
| 20260506175102 | 55 | 45 | 5.0 | 6.0 | 0.00 | 0.00 | 0.00 | 35 | 1016.9 |
| 20260506172802 | 56 | 45 | 6.0 | 6.0 | 0.00 | 0.00 | 0.00 | 37 | 1016.9 |
| 20260506171702 | 56 | 180 | 3.0 | 5.0 | 0.00 | 0.00 | 0.00 | 35 | 1017.3 |
| 20260506170602 | 55 | 270 | 4.0 | 6.0 | 0.00 | 0.00 | 0.00 | 35 | 1017.6 |
| 20260506165402 | 55 | 248 | 3.0 | 5.0 | 0.00 | 0.00 | 0.00 | 37 | 1017.3 |
| 20260506164302 | 53 | 45 | 4.0 | 5.0 | 0.00 | 0.00 | 0.00 | 37 | 1017.6 |
| 20260506163202 | 55 | 23 | 4.0 | 5.0 | 0.00 | 0.00 | 0.00 | 39 | 1017.6 |
| 20260506162102 | 54 | 68 | 3.0 | 7.0 | 0.00 | 0.00 | 0.00 | 40 | 1017.6 |
| 20260506161003 | 53 | 270 | 3.0 | 9.0 | 0.00 | 0.00 | 0.00 | 37 | 1017.3 |
| 20260506155802 | 53 | 338 | 4.0 | 6.0 | 0.00 | 0.00 | 0.00 | 43 | 1017.3 |
| 20260506154702 | 52 | 158 | 4.0 | 4.0 | 0.00 | 0.00 | 0.00 | 41 | 1017.3 |
| 20260506153603 | 51 | 90 | 3.0 | 6.0 | 0.00 | 0.00 | 0.00 | 43 | 1017.3 |
| 20260506151402 | 51 | 248 | 1.0 | 4.0 | 0.00 | 0.00 | 0.00 | 40 | 1017.3 |
| 20260506150304 | 50 | 45 | 3.0 | 5.0 | 0.00 | 0.00 | 0.00 | 44 | 1017.3 |
| 20260506145202 | 50 | 180 | 4.0 | 4.0 | 0.00 | 0.00 | 0.00 | 44 | 1017.3 |
| 20260506144102 | 49 | 45 | 4.0 | 4.0 | 0.00 | 0.00 | 0.00 | 46 | 1017.6 |
| 20260506143003 | 48 | 158 | 2.0 | 4.0 | 0.00 | 0.00 | 0.00 | 45 | 1017.3 |
| 20260506141802 | 47 | 180 | 1.0 | 4.0 | 0.00 | 0.00 | 0.00 | 48 | 1017.3 |
| 20260506140702 | 47 | 68 | 3.0 | 3.0 | 0.00 | 0.00 | 0.00 | 50 | 1017.3 |
| 20260506135602 | 46 | 248 | 1.0 | 2.0 | 0.00 | 0.00 | 0.00 | 53 | 1017.3 |
| 20260506134402 | 45 | 68 | 2.0 | 3.0 | 0.00 | 0.00 | 0.00 | 54 | 1016.9 |
| 20260506133203 | 44 | 158 | 1.0 | 2.0 | 0.00 | 0.00 | 0.00 | 58 | 1016.9 |
| 20260506131003 | 41 | 68 | 0.0 | 3.0 | 0.00 | 0.00 | 0.00 | 61 | 1016.9 |
| 20260506125802 | 40 | 68 | 2.0 | 2.0 | 0.00 | 0.00 | 0.00 | 61 | 1016.6 |
| 20260506123502 | 38 | 225 | 2.0 | 2.0 | 0.00 | 0.00 | 0.00 | 63 | 1016.6 |
| 20260506122305 | 38 | 158 | 1.0 | 2.0 | 0.00 | 0.00 | 0.00 | 65 | 1016.3 |
| 20260506121202 | 38 | 338 | 1.0 | 2.0 | 0.00 | 0.00 | 0.00 | 66 | 1016.3 |
| 20260506114702 | 36 | 45 | 2.0 | 2.0 | 0.00 | 0.00 | 0.00 | 70 | 1015.6 |
| 20260506112402 | 36 | 158 | 0.0 | 0.0 | 0.00 | 0.00 | 0.00 | 70 | 1015.2 |
| 20260506111302 | 37 | 23 | 0.0 | 0.0 | 0.00 | 0.00 | 0.00 | 69 | 1015.2 |
| 20260506110203 | 37 | 68 | 0.0 | 0.0 | 0.00 | 0.00 | 0.00 | 68 | 1015.6 |
| 20260506105102 | 37 | 68 | 1.0 | 2.0 | 0.00 | 0.00 | 0.00 | 68 | 1015.6 |
| 20260506103902 | 38 | 90 | 0.0 | 2.0 | 0.00 | 0.00 | 0.00 | 66 | 1015.6 |
| 20260506102902 | 38 | 68 | 2.0 | 2.0 | 0.00 | 0.00 | 0.00 | 63 | 1015.6 |
| 20260506101702 | 39 | 90 | 1.0 | 1.0 | 0.00 | 0.00 | 0.00 | 63 | 1015.2 |
| 20260506100603 | 39 | 113 | 0.0 | 0.0 | 0.00 | 0.00 | 0.00 | 59 | 1015.2 |
| 20260506095502 | 40 | 180 | 0.0 | 1.0 | 0.00 | 0.00 | 0.00 | 59 | 1015.2 |
| 20260506094402 | 40 | 203 | 1.0 | 2.0 | 0.00 | 0.00 | 0.00 | 56 | 1015.2 |
| 20260506092103 | 41 | 158 | 2.0 | 2.0 | 0.00 | 0.00 | 0.00 | 55 | 1014.9 |
| 20260506090902 | 41 | 180 | 1.0 | 2.0 | 0.00 | 0.00 | 0.00 | 55 | 1014.9 |
| 20260506085802 | 42 | 135 | 2.0 | 2.0 | 0.00 | 0.00 | 0.00 | 54 | 1014.9 |